Weather History for Kaiser, MO

Change the Weather History Date:

Tuesday, January 8, 2013

  Actual Average Record
Temperature  
Mean Temperature 42 °F -  
Max Temperature 55 °F 39 °F 69 °F (2003)
Min Temperature 30 °F 23 °F 15 °F (1999)
Degree Days  
Heating Degree Days 22    
Moisture  
Dew Point 25 °F    
Average Humidity 51    
Maximum Humidity 82    
Minimum Humidity 26    
Precipitation  
Precipitation 0.00 in - - ()
Sea Level Pressure  
Sea Level Pressure 30.13 in    
Wind  
Wind Speed 7 mph (South)    
Max Wind Speed 13 mph    
Max Gust Speed 17 mph    
Visibility 10 miles    
Events      
Averages and records for this station are not official NWS values.
T = Trace of Precipitation, MM = Missing Value Source: NWS Daily Summary

Daily Weather History Graph

Daily Weather History Graph

Search for Another Location

Airport:

Trip Planner

Search our weather history database for the weather conditions in past years. The results will help you decide how hot, cold, wet, or windy it might be!

Date:

Astronomy

Jan. 08, 2013 Rise Set
Actual Time 7:26 AM CST 5:07 PM CST
Civil Twilight 6:57 AM CST 5:36 PM CST
Nautical Twilight 6:24 AM CST 6:09 PM CST
Astronomical Twilight 5:52 AM CST 6:41 PM CST
Moon 4:00 AM CST (1/8) 2:10 PM CST (1/8)
Length of Visible Light 10h 39m
Length of Day
9h 40m
Waning Crescent, 13% of the Moon is Illuminated
Jan 8
Waning Crescent
Jan 11
New
Jan 18
First Quarter
Jan 26
Full
Feb 3
Last Quarter

Hourly Weather History & Observations

Time (CST) Temp. Windchill Dew Point Humidity Pressure Visibility Wind Dir Wind Speed Gust Speed Precip Events Conditions
12:15 AM 35.6 °F 30.7 °F 21.2 °F 56% 30.14 in 10.0 mi SSE 5.8 mph - N/A   Clear
12:35 AM 35.6 °F 31.7 °F 21.2 °F 56% 30.13 in 10.0 mi SSE 4.6 mph - N/A   Clear
12:55 AM 35.6 °F 30.7 °F 21.2 °F 56% 30.14 in 10.0 mi South 5.8 mph - N/A   Clear
1:15 AM 33.8 °F 28.6 °F 21.2 °F 60% 30.13 in 10.0 mi South 5.8 mph - N/A   Clear
1:35 AM 33.8 °F 27.7 °F 21.2 °F 60% 30.13 in 10.0 mi South 6.9 mph - N/A   Clear
1:55 AM 33.8 °F 27.0 °F 21.2 °F 60% 30.13 in 10.0 mi South 8.1 mph - N/A   Clear
2:15 AM 33.8 °F 27.0 °F 21.2 °F 60% 30.13 in 10.0 mi South 8.1 mph - N/A   Clear
2:35 AM 33.8 °F 27.7 °F 21.2 °F 60% 30.14 in 10.0 mi South 6.9 mph - N/A   Clear
2:55 AM 33.8 °F 27.7 °F 21.2 °F 60% 30.14 in 10.0 mi South 6.9 mph - N/A   Clear
3:15 AM 33.8 °F 27.7 °F 21.2 °F 60% 30.14 in 10.0 mi South 6.9 mph - N/A   Clear
3:35 AM 32.0 °F 26.4 °F 21.2 °F 64% 30.14 in 10.0 mi South 5.8 mph - N/A   Clear
3:55 AM 32.0 °F 25.6 °F 21.2 °F 64% 30.14 in 10.0 mi South 6.9 mph - N/A   Clear
4:15 AM 32.0 °F 26.4 °F 21.2 °F 64% 30.14 in 10.0 mi South 5.8 mph - N/A   Clear
4:35 AM 32.0 °F 27.5 °F 21.2 °F 64% 30.14 in 10.0 mi South 4.6 mph - N/A   Clear
4:55 AM 32.0 °F 28.7 °F 21.2 °F 64% 30.14 in 10.0 mi South 3.5 mph - N/A   Clear
5:15 AM 30.2 °F 24.3 °F 21.2 °F 69% 30.14 in 10.0 mi SSE 5.8 mph - N/A   Clear
5:35 AM 30.2 °F 23.4 °F 21.2 °F 69% 30.14 in 10.0 mi SSE 6.9 mph - N/A   Clear
5:55 AM 30.2 °F 25.4 °F 21.2 °F 69% 30.14 in 10.0 mi SSE 4.6 mph - N/A   Clear
6:15 AM 30.2 °F 25.4 °F 21.2 °F 69% 30.14 in 10.0 mi South 4.6 mph - N/A   Clear
6:35 AM 30.2 °F 23.4 °F 21.2 °F 69% 30.15 in 10.0 mi South 6.9 mph - N/A   Clear
6:55 AM 30.2 °F 23.4 °F 21.2 °F 69% 30.16 in 10.0 mi South 6.9 mph - N/A   Clear
7:15 AM 30.2 °F 22.6 °F 21.2 °F 69% 30.16 in 10.0 mi South 8.1 mph - N/A   Clear
7:35 AM 30.2 °F 22.6 °F 21.2 °F 69% 30.16 in 10.0 mi South 8.1 mph - N/A   Clear
7:55 AM 30.2 °F 23.4 °F 21.2 °F 69% 30.16 in 10.0 mi South 6.9 mph - N/A   Clear
8:15 AM 32.0 °F 24.8 °F 23.0 °F 69% 30.16 in 10.0 mi SSE 8.1 mph - N/A   Clear
8:35 AM 33.8 °F 28.6 °F 21.2 °F 60% 30.16 in 10.0 mi SSE 5.8 mph - N/A   Clear
8:55 AM 35.6 °F 30.7 °F 21.2 °F 56% 30.16 in 10.0 mi SSE 5.8 mph - N/A   Clear
9:15 AM 35.6 °F 30.7 °F 23.0 °F 60% 30.16 in 10.0 mi South 5.8 mph - N/A   Clear
9:35 AM 37.4 °F 30.3 °F 24.8 °F 60% 30.17 in 10.0 mi South 10.4 mph - N/A   Clear
9:55 AM 39.2 °F 33.6 °F 24.8 °F 56% 30.17 in 10.0 mi South 8.1 mph - N/A   Clear
10:15 AM 41.0 °F 35.8 °F 24.8 °F 53% 30.17 in 10.0 mi South 8.1 mph - N/A   Clear
10:35 AM 42.8 °F 37.5 °F 24.8 °F 49% 30.16 in 10.0 mi South 9.2 mph - N/A   Clear
10:55 AM 44.6 °F 40.7 °F 24.8 °F 46% 30.15 in 10.0 mi South 6.9 mph - N/A   Clear
11:15 AM 46.4 °F 41.5 °F 24.8 °F 43% 30.14 in 10.0 mi South 10.4 mph - N/A   Clear
11:35 AM 48.2 °F - 24.8 °F 40% 30.13 in 10.0 mi South 9.2 mph - N/A   Clear
11:55 AM 51.8 °F - 24.8 °F 35% 30.13 in 10.0 mi South 11.5 mph 16.1 mph N/A   Clear
12:15 PM 51.8 °F - 24.8 °F 35% 30.12 in 10.0 mi South 11.5 mph - N/A   Clear
12:35 PM 51.8 °F - 24.8 °F 35% 30.11 in 10.0 mi SSW 9.2 mph - N/A   Clear
12:55 PM 51.8 °F - 23.0 °F 33% 30.10 in 10.0 mi South 11.5 mph - N/A   Clear
1:15 PM 53.6 °F - 24.8 °F 33% 30.09 in 10.0 mi South 8.1 mph - N/A   Clear
1:55 PM 53.6 °F - 21.2 °F 28% 30.07 in 10.0 mi SSE 6.9 mph - N/A   Scattered Clouds
2:15 PM 55.4 °F - 23.0 °F 29% 30.07 in 10.0 mi South 10.4 mph 17.3 mph N/A   Mostly Cloudy
2:35 PM 55.4 °F - 21.2 °F 26% 30.06 in 10.0 mi South 8.1 mph - N/A   Partly Cloudy
2:55 PM 55.4 °F - 21.2 °F 26% 30.07 in 10.0 mi South 12.7 mph 17.3 mph N/A   Clear
3:15 PM 53.6 °F - 21.2 °F 28% 30.07 in 10.0 mi South 8.1 mph - N/A   Mostly Cloudy
3:35 PM 55.4 °F - 21.2 °F 26% 30.08 in 10.0 mi South 10.4 mph 16.1 mph N/A   Overcast
3:55 PM 55.4 °F - 21.2 °F 26% 30.08 in 10.0 mi South 11.5 mph - N/A   Overcast
4:15 PM 53.6 °F - 21.2 °F 28% 30.08 in 10.0 mi South 9.2 mph - N/A   Overcast
4:35 PM 53.6 °F - 23.0 °F 30% 30.07 in 10.0 mi South 6.9 mph - N/A   Overcast
4:55 PM 53.6 °F - 23.0 °F 30% 30.07 in 10.0 mi South 8.1 mph - N/A   Mostly Cloudy
5:15 PM 51.8 °F - 23.0 °F 33% 30.08 in 10.0 mi South 8.1 mph - N/A   Mostly Cloudy
5:35 PM 51.8 °F - 24.8 °F 35% 30.09 in 10.0 mi South 6.9 mph - N/A   Scattered Clouds
5:55 PM 50.0 °F - 24.8 °F 37% 30.09 in 10.0 mi South 6.9 mph - N/A   Mostly Cloudy
6:15 PM 51.8 °F - 26.6 °F 38% 30.10 in 10.0 mi South 8.1 mph - N/A   Overcast
6:35 PM 51.8 °F - 28.4 °F 41% 30.12 in 10.0 mi SSW 9.2 mph - N/A   Overcast
6:55 PM 51.8 °F - 30.2 °F 44% 30.10 in 10.0 mi SSW 8.1 mph - N/A   Overcast
7:15 PM 51.8 °F - 32.0 °F 47% 30.12 in 10.0 mi SSW 8.1 mph - N/A   Overcast
7:35 PM 51.8 °F - 33.8 °F 50% 30.12 in 10.0 mi SSW 9.2 mph - N/A   Overcast
7:55 PM 51.8 °F - 33.8 °F 50% 30.13 in 10.0 mi SSW 6.9 mph - N/A   Mostly Cloudy
8:15 PM 50.0 °F - 33.8 °F 54% 30.13 in 10.0 mi SSW 6.9 mph - N/A   Mostly Cloudy
8:35 PM 50.0 °F - 33.8 °F 54% 30.13 in 10.0 mi South 6.9 mph - N/A   Scattered Clouds
8:55 PM 48.2 °F - 33.8 °F 58% 30.13 in 10.0 mi South 6.9 mph - N/A   Mostly Cloudy
9:15 PM 50.0 °F - 33.8 °F 54% 30.14 in 10.0 mi SSW 6.9 mph - N/A   Mostly Cloudy
9:35 PM 50.0 °F - 35.6 °F 58% 30.15 in 10.0 mi SW 6.9 mph - N/A   Overcast
10:15 PM 51.8 °F - 39.2 °F 62% 30.16 in 10.0 mi SSW 8.1 mph - N/A   Overcast
10:35 PM 50.0 °F - 39.2 °F 66% 30.17 in 10.0 mi SW 9.2 mph - N/A   Overcast
11:55 PM 48.2 °F - 42.8 °F 82% 30.22 in 8.0 mi SSW 6.9 mph - N/A   Overcast